Location: Waco, TX
(31.5480°N, 97.1670°W)
Time: 07:19:36
(UTC-05:00)

ISS - Pass Details

Date: 27 September 2022
Orbit: 414 x 417 km, 51.6° (Epoch: 01 October)

Event Time Altitude Azimuth Distance (km) Brightness Sun altitude
Rises 16:24:04 0° 256° (WSW) 2,343 1.0 35.0°
Reaches altitude 10° 16:26:32 10° 274° (W) 1,484 0.0 34.5°
Maximum altitude 16:29:04 20° 323° (NW) 1,025 -1.5 34.0°
Drops below altitude 10° 16:31:38 10° 13° (NNE) 1,491 -1.2 33.5°
Sets 16:34:07 0° 31° (NNE) 2,357 -0.4 33.1°
